BEIDOU IGSO-6

Last updated on Nov. 18, 2019, 4:21 a.m. UTC

1 41434U 16021A   19320.75627837 -.00000144  00000-0  00000-0 0  9996
2 41434  56.7416  62.8060 0038338 201.1042 158.0763  1.00260499 13379
UTC
Height (km)
Latitude
Longitude
Inclination
Orbital Period
UTC large
Height (km)
Speed (km/s)
/
Latitude / Longitude
Inclination (degrees)
Orbital Period (minutes)
Azimuth
Elevation
Range (km)
Doppler Factor
iOS Compass Heading
iOS Angle

Next 30 passes for location: Hong Kong

Rise time Rise Azimuth (degrees) Set time Set Azimuth (degrees) Duration Max altitude (degrees)

No matching passes for this satellites